Hourly Data Report for October 21, 2013

All times are specified in Local Standard Time (LST). Add 1 hour to adjust for Daylight Saving Time where and when it is observed.

IQALUIT CLIMATE
NUNAVUT

63°44'50.000" N
68°32'40.000" W
33.50 m
2402592
71321
XFB

Download Data

Hourly Data (October 2013)
Hourly Data Report for October 21, 2013
Temp Definition
°C
Dew Point Temp Definition
°C
Rel Hum Definition
%
Wind Dir Definition
10's deg

Wind Spd Definition
km/h
Visibility Definition
km
Stn Press Definition
kPa
Hmdx Definition


Wind Chill Definition


Weather Definition


TIME
00:00 0.9 0.9 100 17 9   101.66     LegendNANA
01:00 0.7 0.7 100 14 9   101.65     LegendNANA
02:00 0.9 0.2 95 13 11   101.64     LegendNANA
03:00 0.5 0.4 99 17 6   101.63     LegendNANA
04:00 0.3 0.3 100 16 6   101.63     LegendNANA
05:00 0.3 0.2 99 14 9   101.62     LegendNANA
06:00 0.2 0.0 99 12 7   101.62     LegendNANA
07:00 0.0 0.0 100 17 7   101.62   -2 LegendNANA
08:00 -0.1 -0.3 99 16 6   101.62   -2 LegendNANA
09:00 -0.4 -0.5 99 16 6   101.60   -2 LegendNANA
10:00 -0.5 -0.5 100 14 4   101.60   -2 LegendNANA
11:00 -0.3 -0.3 100 15 2   101.56   -1 LegendNANA
12:00 -0.4 -0.4 100 27 6   101.52   -2 LegendNANA
13:00 -0.4 -0.4 100 29 6   101.49   -2 LegendNANA
14:00 -0.3 -0.3 100 26 6   101.49   -2 LegendNANA
15:00 -0.5 -0.5 100 26 6   101.48   -3 LegendNANA
16:00 -0.5 -0.5 100 27 6   101.50   -3 LegendNANA
17:00 -0.5 -0.5 100 25 6   101.47   -3 LegendNANA
18:00 -0.4 -0.4 100   0   101.46     LegendNANA
19:00 -0.2 -0.2 100 11 2   101.44   -1 LegendNANA
20:00 -0.4 -0.4 100 20 6   101.44   -2 LegendNANA
21:00 -0.6 -0.6 100   0   101.41     LegendNANA
22:00 -0.5 -0.5 100 36 2   101.37   -1 LegendNANA
23:00 -0.9 -0.9 100 34 6   101.34   -3 LegendNANA

Notes on Data Quality.

Legend

  • E = Estimated
  • M = Missing
  • NA = Not Available
  • ‡ = Partner data that is not subject to review by the National Climate Archives
Date modified: